| time (UTC) | temp F | wind direction | speed MPH | gust MPH | rain 1hr in | rain 24hr in | rain mn in | humidity % | barometer mb |
| 20260903213032 | 94 | 188 | 0.0 | 0.0 | 0.00 | 0.00 | 0.00 | 55 | 1011.9 |
| 20260903211529 | 95 | 188 | 0.0 | 1.0 | 0.00 | 0.00 | 0.00 | 54 | 1011.9 |
| 20260903210011 | 95 | 106 | 0.0 | 4.0 | 0.00 | 0.00 | 0.00 | 52 | 1012.0 |
| 20260903204510 | 95 | 150 | 0.0 | 10.0 | 0.00 | 0.00 | 0.00 | 51 | 1012.1 |
| 20260903203104 | 96 | 96 | 0.0 | 8.0 | 0.00 | 0.00 | 0.00 | 51 | 1012.2 |
| 20260903201549 | 96 | 108 | 0.0 | 5.0 | 0.00 | 0.00 | 0.00 | 54 | 1012.6 |
| 20260903200035 | 95 | 69 | 0.0 | 6.0 | 0.00 | 0.00 | 0.00 | 54 | 1012.8 |
| 20260903194532 | 95 | 84 | 0.0 | 8.0 | 0.00 | 0.00 | 0.00 | 54 | 1013.1 |
| 20260903193030 | 95 | 108 | 5.0 | 9.0 | 0.00 | 0.00 | 0.00 | 52 | 1013.3 |
| 20260903191527 | 94 | 93 | 0.0 | 4.0 | 0.00 | 0.00 | 0.00 | 54 | 1013.4 |
| 20260903190026 | 94 | 112 | 0.0 | 7.0 | 0.00 | 0.00 | 0.00 | 56 | 1013.6 |
| 20260903184524 | 95 | 49 | 3.0 | 6.0 | 0.00 | 0.00 | 0.00 | 54 | 1013.7 |
| 20260903183023 | 95 | 89 | 1.0 | 6.0 | 0.00 | 0.00 | 0.00 | 54 | 1013.9 |
| 20260903181523 | 94 | 72 | 1.0 | 7.0 | 0.00 | 0.00 | 0.00 | 55 | 1014.1 |
| 20260903180004 | 93 | 238 | 0.0 | 4.0 | 0.00 | 0.00 | 0.00 | 56 | 1014.2 |
| 20260903174504 | 93 | 36 | 2.0 | 6.0 | 0.00 | 0.00 | 0.00 | 60 | 1014.4 |
| 20260903173044 | 93 | 28 | 0.0 | 7.0 | 0.00 | 0.00 | 0.00 | 63 | 1014.6 |
| 20260903171549 | 92 | 104 | 0.0 | 7.0 | 0.00 | 0.00 | 0.00 | 62 | 1014.8 |
| 20260903170036 | 92 | 53 | 0.0 | 3.0 | 0.00 | 0.00 | 0.00 | 65 | 1015.0 |
| 20260903164525 | 92 | 100 | 0.0 | 4.0 | 0.00 | 0.00 | 0.00 | 65 | 1015.1 |
| 20260903163013 | 91 | 30 | 0.0 | 4.0 | 0.00 | 0.00 | 0.00 | 66 | 1015.4 |
| 20260903161508 | 90 | 215 | 0.0 | 2.0 | 0.00 | 0.00 | 0.00 | 68 | 1015.6 |
| 20260903160050 | 89 | 38 | 0.0 | 3.0 | 0.00 | 0.00 | 0.00 | 71 | 1015.6 |
| 20260903154550 | 88 | 81 | 0.0 | 0.0 | 0.00 | 0.00 | 0.00 | 73 | 1015.8 |
| 20260903153031 | 87 | 119 | 0.0 | 2.0 | 0.00 | 0.00 | 0.00 | 75 | 1015.8 |
| 20260903151530 | 85 | 113 | 0.0 | 1.0 | 0.00 | 0.00 | 0.00 | 78 | 1015.7 |
| 20260903150033 | 84 | 113 | 0.0 | 0.0 | 0.00 | 0.00 | 0.00 | 83 | 1015.6 |
| 20260903144522 | 82 | 113 | 0.0 | 1.0 | 0.00 | 0.00 | 0.00 | 84 | 1015.6 |
| 20260903143056 | 81 | 113 | 0.0 | 3.0 | 0.00 | 0.00 | 0.00 | 87 | 1015.5 |
| 20260903141554 | 80 | 115 | 0.0 | 0.0 | 0.00 | 0.00 | 0.00 | 91 | 1015.4 |
| 20260903140043 | 78 | 115 | 0.0 | 0.0 | 0.00 | 0.00 | 0.00 | 91 | 1015.5 |
| 20260903134550 | 78 | 115 | 0.0 | 0.0 | 0.00 | 0.00 | 0.00 | 93 | 1015.6 |
| 20260903133045 | 77 | 115 | 0.0 | 0.0 | 0.00 | 0.00 | 0.00 | 94 | 1015.7 |
| 20260903131541 | 77 | 115 | 0.0 | 0.0 | 0.00 | 0.00 | 0.00 | 94 | 1015.7 |
| 20260903130040 | 76 | 115 | 0.0 | 0.0 | 0.00 | 0.00 | 0.00 | 95 | 1015.6 |
| 20260903124549 | 75 | 115 | 0.0 | 0.0 | 0.00 | 0.00 | 0.00 | 95 | 1015.4 |
| 20260903123038 | 75 | 115 | 0.0 | 0.0 | 0.00 | 0.00 | 0.00 | 95 | 1015.4 |
| 20260903121537 | 74 | 115 | 0.0 | 0.0 | 0.00 | 0.00 | 0.00 | 94 | 1015.4 |
| 20260903120018 | 74 | 115 | 0.0 | 0.0 | 0.00 | 0.00 | 0.00 | 94 | 1015.4 |
| 20260903114519 | 74 | 115 | 0.0 | 0.0 | 0.00 | 0.00 | 0.00 | 94 | 1015.3 |
| 20260903113100 | 74 | 115 | 0.0 | 0.0 | 0.00 | 0.00 | 0.00 | 93 | 1015.2 |
| 20260903113001 | 74 | 115 | 0.0 | 0.0 | 0.00 | 0.00 | 0.00 | 93 | 1015.2 |
| 20260903111600 | 74 | 115 | 0.0 | 0.0 | 0.00 | 0.00 | 0.00 | 93 | 1015.0 |
| 20260903110043 | 74 | 115 | 0.0 | 0.0 | 0.00 | 0.00 | 0.00 | 93 | 1014.8 |
| 20260903104540 | 74 | 115 | 0.0 | 0.0 | 0.00 | 0.00 | 0.00 | 93 | 1014.8 |
| 20260903103024 | 75 | 115 | 0.0 | 0.0 | 0.00 | 0.00 | 0.00 | 93 | 1014.7 |
| 20260903101520 | 75 | 115 | 0.0 | 0.0 | 0.00 | 0.00 | 0.00 | 93 | 1014.6 |
| 20260903100002 | 75 | 115 | 0.0 | 0.0 | 0.00 | 0.00 | 0.00 | 93 | 1014.6 |
| 20260903094501 | 75 | 115 | 0.0 | 0.0 | 0.00 | 0.00 | 0.00 | 93 | 1014.6 |
| 20260903093043 | 75 | 115 | 0.0 | 0.0 | 0.00 | 0.00 | 0.00 | 93 | 1014.6 |
| 20260903091552 | 75 | 115 | 0.0 | 0.0 | 0.00 | 0.00 | 0.00 | 93 | 1014.6 |
| 20260903090027 | 75 | 115 | 0.0 | 0.0 | 0.00 | 0.00 | 0.00 | 93 | 1014.5 |
| 20260903084538 | 76 | 115 | 0.0 | 0.0 | 0.00 | 0.00 | 0.00 | 92 | 1014.6 |
| 20260903083006 | 76 | 115 | 0.0 | 0.0 | 0.00 | 0.00 | 0.00 | 92 | 1014.6 |
| 20260903081505 | 76 | 115 | 0.0 | 0.0 | 0.00 | 0.00 | 0.00 | 91 | 1014.4 |
| 20260903080050 | 76 | 115 | 0.0 | 0.0 | 0.00 | 0.00 | 0.00 | 91 | 1014.4 |
| 20260903074550 | 76 | 115 | 0.0 | 0.0 | 0.00 | 0.00 | 0.00 | 91 | 1014.4 |
| 20260903073027 | 76 | 115 | 0.0 | 0.0 | 0.00 | 0.00 | 0.00 | 91 | 1014.5 |
| 20260903071527 | 76 | 115 | 0.0 | 0.0 | 0.00 | 0.00 | 0.00 | 91 | 1014.5 |
| 20260903070007 | 77 | 115 | 0.0 | 0.0 | 0.00 | 0.00 | 0.00 | 90 | 1014.5 |
| 20260903064506 | 77 | 115 | 0.0 | 0.0 | 0.00 | 0.00 | 0.00 | 90 | 1014.6 |
| 20260903063104 | 77 | 115 | 0.0 | 0.0 | 0.00 | 0.00 | 0.00 | 89 | 1014.7 |
| 20260903061549 | 77 | 115 | 0.0 | 0.0 | 0.00 | 0.00 | 0.00 | 89 | 1014.7 |
| 20260903060038 | 77 | 115 | 0.0 | 0.0 | 0.00 | 0.00 | 0.00 | 89 | 1014.7 |
| 20260903054527 | 77 | 115 | 0.0 | 0.0 | 0.00 | 0.00 | 0.00 | 88 | 1014.7 |
| 20260903053017 | 78 | 115 | 0.0 | 0.0 | 0.00 | 0.00 | 0.00 | 88 | 1014.8 |
| 20260903051508 | 78 | 115 | 0.0 | 0.0 | 0.00 | 0.00 | 0.00 | 88 | 1014.7 |
| 20260903050100 | 78 | 115 | 0.0 | 0.0 | 0.00 | 0.00 | 0.00 | 87 | 1014.8 |
| 20260903044558 | 78 | 115 | 0.0 | 0.0 | 0.00 | 0.00 | 0.00 | 86 | 1014.7 |
| 20260903043034 | 78 | 115 | 0.0 | 0.0 | 0.00 | 0.00 | 0.00 | 85 | 1014.7 |
| 20260903041531 | 79 | 115 | 0.0 | 0.0 | 0.00 | 0.00 | 0.00 | 85 | 1014.7 |
| 20260903040015 | 79 | 115 | 0.0 | 0.0 | 0.00 | 0.00 | 0.00 | 83 | 1014.7 |
| 20260903034515 | 79 | 115 | 0.0 | 0.0 | 0.00 | 0.00 | 0.00 | 83 | 1014.8 |
| 20260903033012 | 80 | 115 | 0.0 | 0.0 | 0.00 | 0.00 | 0.00 | 82 | 1014.8 |
| 20260903031510 | 80 | 115 | 0.0 | 0.0 | 0.00 | 0.00 | 0.00 | 81 | 1015.0 |
| 20260903030009 | 81 | 115 | 0.0 | 0.0 | 0.00 | 0.00 | 0.00 | 80 | 1014.9 |
| 20260903024507 | 81 | 115 | 0.0 | 0.0 | 0.00 | 0.00 | 0.00 | 79 | 1014.9 |
| 20260903023006 | 81 | 115 | 0.0 | 0.0 | 0.00 | 0.00 | 0.00 | 79 | 1014.9 |
| 20260903021510 | 82 | 115 | 0.0 | 0.0 | 0.00 | 0.00 | 0.00 | 79 | 1014.8 |
| 20260903020046 | 82 | 115 | 0.0 | 0.0 | 0.00 | 0.00 | 0.00 | 77 | 1014.8 |
| 20260903014547 | 83 | 115 | 0.0 | 0.0 | 0.00 | 0.00 | 0.00 | 76 | 1014.6 |
| 20260903013026 | 83 | 115 | 0.0 | 0.0 | 0.00 | 0.00 | 0.00 | 74 | 1014.3 |
| 20260903011521 | 84 | 115 | 0.0 | 0.0 | 0.00 | 0.00 | 0.00 | 72 | 1014.3 |
| 20260903010003 | 85 | 115 | 0.0 | 0.0 | 0.00 | 0.00 | 0.00 | 71 | 1014.0 |
| 20260903004558 | 85 | 115 | 0.0 | 0.0 | 0.00 | 0.00 | 0.00 | 69 | 1014.0 |
| 20260903003036 | 87 | 115 | 0.0 | 0.0 | 0.00 | 0.00 | 0.00 | 67 | 1013.9 |
| 20260903001534 | 88 | 115 | 0.0 | 0.0 | 0.00 | 0.00 | 0.00 | 65 | 1014.0 |
| 20260903000012 | 89 | 115 | 0.0 | 0.0 | 0.00 | 0.00 | 0.00 | 63 | 1013.9 |
| 20260902234508 | 90 | 115 | 0.0 | 0.0 | 0.00 | 0.00 | 0.00 | 62 | 1013.9 |
| 20260902233106 | 91 | 115 | 0.0 | 0.0 | 0.00 | 0.00 | 0.00 | 60 | 1013.8 |
| 20260902231546 | 92 | 115 | 0.0 | 0.0 | 0.00 | 0.00 | 0.00 | 58 | 1013.7 |
| 20260902230046 | 93 | 115 | 0.0 | 2.0 | 0.00 | 0.00 | 0.00 | 56 | 1013.7 |
| 20260902224528 | 94 | 109 | 0.0 | 4.0 | 0.00 | 0.00 | 0.00 | 55 | 1013.8 |
| 20260902223027 | 94 | 129 | 0.0 | 3.0 | 0.00 | 0.00 | 0.00 | 55 | 1013.8 |
| 20260902221507 | 94 | 128 | 0.0 | 5.0 | 0.00 | 0.00 | 0.00 | 53 | 1014.0 |
| 20260902220009 | 94 | 73 | 0.0 | 5.0 | 0.00 | 0.00 | 0.00 | 53 | 1014.0 |
| 20260902214553 | 94 | 27 | 0.0 | 4.0 | 0.00 | 0.00 | 0.00 | 53 | 1014.1 |